Theta_e
318 318 318 317 317 316 316 316 315 315 314 313 312 311 311 311 310 310 309 309 309 308 308 307 307 307 307 308 307 307 308 308 308 308 308 308 308 308 307 306 306 306 306 306 306 306 306 306 306 305 305 305 305 304 304 305 305 305 305 306 305 305 305 304 303 303 303 303 303 303 303 303 303 302 302 302 302 302 303 303 303 303 303 303 303
317 316 316 315 315 314 314 313 312 312 311 310 309 309 309 309 308 308 307 307 307 306 306 306 306 306 306 306 306 306 306 306 306 307 307 307 307 306 306 305 304 304 304 304 304 303 303 303 303 302 302 302 301 301 301 301 301 302 302 302 302 302 303 302 302 302 302 302 302 302 302 302 302 302 302 302 302 302 302 302 302 302 302 302 302
313 313 312 312 311 311 310 310 309 309 308 308 308 308 307 307 307 307 306 306 306 305 305 305 305 305 304 304 303 303 303 303 304 304 304 304 304 304 303 303 303 302 302 301 300 300 300 299 299 299 298 298 298 298 298 298 298 299 299 299 300 300 301 301 301 301 301 301 301 301 301 301 301 301 301 301 301 301 301 301 301 301 301 301 300
310 309 309 309 309 308 308 308 308 308 307 307 307 306 306 306 306 306 305 305 305 304 304 304 303 302 302 301 301 300 300 300 300 300 300 300 300 300 300 300 300 300 299 298 298 298 298 297 297 297 296 296 296 296 296 296 296 297 297 298 298 299 299 300 300 300 300 300 300 300 300 300 300 300 300 300 300 300 300 300 300 300 300 299 299
308 308 308 307 307 307 307 307 307 307 306 306 306 306 306 305 305 304 304 304 303 303 302 301 300 299 299 298 298 298 298 298 297 297 297 297 297 297 297 297 297 297 297 297 297 297 296 296 295 295 295 295 295 295 295 295 295 295 296 296 296 297 298 298 299 299 299 299 299 299 299 299 299 299 299 299 300 300 299 299 299 299 299 299 298
306 306 307 307 307 306 306 306 306 305 305 305 305 305 305 304 304 303 303 302 301 300 299 298 297 297 296 296 296 296 295 295 295 295 295 295 295 295 295 295 295 295 295 295 295 295 295 294 294 294 294 294 294 294 295 295 295 295 295 295 295 296 296 296 297 298 298 298 298 298 298 298 298 298 298 298 299 299 299 298 298 298 298 298 298
306 306 306 306 306 305 305 305 305 305 304 304 304 304 303 303 302 301 300 299 298 297 297 296 296 295 295 294 294 294 294 294 294 294 294 293 293 293 293 293 293 293 293 293 293 293 293 293 293 293 293 294 294 294 294 295 295 295 295 295 294 295 295 295 296 296 297 297 297 297 297 297 297 297 297 297 298 298 298 297 297 297 297 297 297
305 305 305 305 304 304 304 304 304 304 304 303 303 302 301 300 299 298 297 296 296 295 295 295 294 294 294 293 293 293 293 293 293 293 293 293 293 293 293 293 292 292 292 292 292 292 292 291 292 292 292 292 292 293 293 294 294 294 295 294 294 294 295 295 295 295 296 296 296 296 296 296 296 296 296 296 296 297 297 296 296 296 296 296 296
304 303 303 303 303 303 303 303 303 303 302 302 301 300 298 298 297 296 295 295 294 294 294 294 294 293 293 293 293 293 293 293 293 293 293 292 292 292 292 292 292 292 291 291 291 291 290 290 290 290 290 291 291 291 291 292 293 293 294 294 294 294 294 294 295 295 295 295 295 295 295 295 295 295 295 295 296 296 296 296 296 296 296 296 296
302 302 302 301 302 302 302 302 301 300 300 299 298 297 296 296 295 295 294 294 294 294 293 293 293 293 293 293 293 293 293 292 292 292 292 292 292 291 291 291 291 290 290 290 290 290 290 289 290 289 289 290 289 290 290 290 291 292 292 293 293 294 294 294 294 294 294 294 294 295 295 295 295 295 295 295 295 295 295 296 296 296 296 296 295
302 301 301 300 300 300 300 299 299 298 297 297 296 295 295 295 294 294 294 294 293 293 293 293 293 293 293 293 292 292 292 292 291 291 291 291 290 290 290 290 290 289 289 289 289 289 289 289 289 289 289 289 289 289 289 289 289 290 290 291 292 292 293 293 293 293 293 294 294 294 294 294 294 294 294 294 294 295 295 295 295 295 295 295 295
301 300 298 297 298 298 297 297 296 296 295 295 295 294 294 294 294 294 294 293 293 293 293 293 293 293 293 292 292 291 291 291 290 290 290 289 289 289 289 289 289 289 289 289 288 288 288 288 288 288 288 288 288 288 289 289 289 289 289 289 290 291 291 292 292 293 293 293 293 293 293 293 293 293 293 293 294 294 294 294 295 295 295 295 295
299 298 296 296 296 296 296 295 295 295 294 294 294 294 293 294 293 293 293 293 293 293 293 292 292 292 292 291 291 291 290 290 290 289 289 289 289 289 288 288 288 288 288 288 288 288 288 288 288 288 288 288 288 288 288 288 288 288 288 289 289 289 290 290 291 291 292 292 293 293 293 293 293 293 292 293 293 293 293 293 294 294 294 294 294
297 296 295 295 295 295 295 295 294 294 294 294 293 293 293 293 293 293 293 293 292 292 292 291 291 291 291 291 290 290 290 289 289 288 288 288 288 288 288 288 287 287 287 287 287 287 287 287 288 287 287 287 287 288 288 288 288 288 288 288 288 289 289 289 290 290 291 291 292 292 292 292 292 292 292 292 292 292 292 292 292 293 293 293 293
295 295 295 294 294 294 294 294 294 294 293 293 293 293 293 293 293 293 292 292 292 291 291 291 290 290 290 290 289 289 289 288 288 288 287 287 287 287 287 287 287 287 287 287 287 287 287 287 287 287 287 287 287 287 287 287 287 287 288 288 288 288 288 288 289 289 289 290 290 291 291 291 291 291 291 291 291 291 291 291 292 292 292 292 292
294 294 294 294 294 294 294 294 293 293 293 293 293 293 293 292 292 292 291 291 291 291 290 290 290 289 289 289 288 288 288 287 287 287 287 286 286 286 286 286 286 286 286 287 287 287 287 287 287 287 286 286 286 286 286 287 287 287 287 287 287 287 287 287 288 288 288 289 289 289 290 290 290 290 290 291 291 291 291 291 291 291 291 291 292
294 293 293 293 293 293 293 293 293 293 293 293 293 292 292 292 291 291 290 290 290 290 290 289 289 288 288 287 287 287 286 286 286 286 285 285 285 285 285 285 285 286 286 286 286 286 286 286 286 286 285 285 285 286 286 286 287 286 287 287 286 286 286 286 287 287 287 287 287 288 288 288 288 289 289 289 290 290 290 291 290 290 290 291 291
293 293 293 293 293 293 293 293 293 292 292 292 292 291 291 291 291 290 290 290 290 289 289 288 288 287 287 286 286 286 285 285 285 285 284 284 284 284 284 285 286 286 286 286 285 285 285 284 284 284 284 284 284 285 285 285 286 286 286 286 286 286 286 286 286 286 286 286 286 287 287 287 287 287 287 287 287 288 288 289 289 289 289 290 290
293 293 293 292 292 292 292 292 292 292 291 291 291 290 290 290 290 290 290 289 289 289 288 288 287 286 286 285 285 285 284 284 284 284 283 284 284 284 284 285 285 285 284 284 284 284 283 283 283 283 283 283 284 284 285 285 285 285 285 285 286 286 286 286 286 286 286 286 286 286 285 285 286 286 286 286 286 286 287 287 288 288 289 289 289
292 292 292 292 292 292 291 291 291 291 291 290 290 290 290 290 289 289 289 289 288 288 287 286 286 285 284 284 284 283 283 283 283 283 283 283 283 283 284 283 283 283 282 282 283 283 283 282 282 282 282 283 284 284 284 284 284 284 285 285 285 285 285 285 285 285 285 285 284 284 285 285 285 286 286 286 286 287 287 287 288 288 288 289 289
292 292 291 291 291 291 290 290 290 290 290 290 289 290 289 289 289 288 288 287 287 286 285 285 284 284 283 283 283 283 283 283 283 283 283 282 282 282 282 282 282 282 282 281 281 282 282 281 281 281 282 283 283 283 283 284 284 284 284 284 284 284 284 284 284 284 284 284 284 284 285 285 286 286 286 286 286 287 287 287 287 288 288 289 289
291 291 290 290 290 289 289 289 289 289 289 289 289 289 288 288 287 287 286 285 285 284 284 284 284 284 284 283 283 283 283 283 282 282 282 281 281 281 281 281 281 281 281 281 281 281 281 281 281 281 282 282 282 282 283 283 283 283 283 283 283 283 283 283 283 283 284 284 285 285 285 285 286 286 286 286 286 287 287 287 287 287 288 288 288
290 290 289 289 289 289 288 288 289 289 289 288 288 287 287 286 286 285 284 284 284 284 284 285 285 284 284 283 283 283 283 282 282 281 280 280 280 281 280 280 280 280 280 280 280 279 280 280 280 281 281 281 281 282 282 282 281 281 282 282 282 283 283 283 283 284 284 285 285 285 285 285 286 286 286 286 287 287 287 287 287 287 287 287 288
289 289 288 288 288 288 288 288 288 288 288 287 287 286 285 284 284 283 283 284 284 285 284 284 284 284 283 283 283 282 282 281 280 279 279 279 279 279 279 279 279 279 279 279 278 279 279 279 280 280 281 281 281 281 280 280 280 281 281 282 282 282 283 283 284 284 284 285 285 285 285 285 286 286 286 286 287 287 287 287 287 287 287 287 287
288 288 288 288 288 288 288 287 287 287 287 286 286 285 284 283 283 283 283 284 284 284 283 283 283 282 282 281 280 281 280 280 279 278 277 277 277 278 278 278 278 278 278 278 278 278 279 279 280 280 280 280 280 280 280 280 280 280 281 281 282 282 283 283 283 283 284 284 284 284 285 285 285 286 286 286 286 287 287 287 287 287 287 287 287
288 287 287 287 287 287 287 287 286 286 285 285 285 285 284 284 284 283 283 283 283 282 282 281 281 281 280 278 278 278 278 278 277 277 276 276 276 277 278 277 277 278 277 277 278 278 279 279 279 279 279 279 279 279 279 279 280 280 281 281 281 282 282 282 282 282 283 283 283 284 284 284 285 285 285 286 286 286 286 286 287 287 287 287 287
287 287 287 287 287 286 286 286 285 285 285 284 284 284 284 283 283 282 282 282 281 281 280 280 279 279 278 277 276 276 277 276 276 276 276 276 276 277 277 276 277 277 277 277 278 278 278 278 278 278 278 278 278 279 279 279 280 280 280 280 281 280 280 280 281 281 282 283 283 283 284 284 284 285 285 285 285 286 286 286 286 287 287 287 287
287 287 286 286 286 285 285 285 284 284 284 283 283 283 282 282 281 281 280 280 280 280 279 278 278 277 277 276 275 275 275 276 276 276 276 276 276 276 276 276 276 276 277 277 278 277 277 277 277 277 277 277 278 278 279 279 279 279 279 279 279 279 279 279 280 281 281 282 283 283 283 284 284 284 285 285 285 285 285 286 286 286 287 287 287
286 286 285 285 285 284 284 284 283 283 283 282 282 282 281 281 280 279 279 279 278 278 278 278 277 276 276 275 275 275 275 275 276 276 276 276 276 276 276 276 276 276 276 277 277 276 276 276 276 276 277 277 278 278 278 278 277 277 277 277 277 278 278 279 280 281 281 282 282 283 283 284 284 284 284 285 285 285 285 285 285 286 286 286 287
285 285 284 284 284 283 283 283 282 282 282 281 281 281 280 279 278 278 278 278 278 278 277 277 277 276 275 275 275 275 275 275 275 275 275 275 275 275 275 276 276 275 276 276 275 275 275 275 275 276 276 277 277 277 276 276 276 276 276 276 277 277 278 279 279 280 280 281 282 282 283 283 283 284 284 284 284 284 285 285 285 285 286 286 286
285 284 284 283 283 282 282 282 281 281 281 281 280 279 279 278 277 277 277 277 277 277 276 276 276 275 274 274 274 274 274 275 274 274 274 274 274 274 275 275 274 274 274 274 273 273 273 274 274 274 274 274 274 274 274 274 275 275 275 275 276 277 277 277 278 278 279 280 281 282 282 282 283 283 283 283 284 284 284 285 285 285 285 285 286
285 284 283 283 282 282 281 281 281 281 280 280 279 279 278 278 276 276 276 277 276 275 275 275 274 274 274 274 274 273 273 273 273 273 273 273 273 274 274 273 272 273 273 272 271 271 272 272 272 272 272 272 272 272 272 273 273 274 274 275 275 275 276 276 276 278 279 280 280 281 281 281 282 282 283 283 284 284 284 284 285 285 285 285 285
285 284 283 282 282 281 281 281 280 280 279 279 279 278 278 278 277 276 276 276 275 275 274 274 274 273 273 273 273 273 273 273 273 273 273 272 272 272 272 272 271 271 271 270 269 270 270 270 270 270 270 270 270 270 271 271 271 272 273 273 273 273 273 274 275 277 278 279 279 279 280 281 281 282 282 283 283 284 284 284 284 285 285 285 285
283 283 282 282 281 281 281 280 280 279 278 278 278 277 277 277 276 276 275 275 275 274 274 274 273 272 272 272 272 272 273 273 273 273 272 272 271 271 271 272 271 270 269 268 268 268 268 269 269 269 268 268 268 269 269 269 270 271 271 271 271 272 271 272 273 275 276 276 277 278 278 279 280 281 281 282 283 283 284 284 284 284 284 285 285
281 281 281 280 280 280 280 279 279 278 278 277 277 277 276 275 274 273 273 272 273 273 273 273 272 271 271 271 272 272 273 273 273 272 271 271 270 270 271 271 270 268 267 267 267 267 267 267 267 267 266 267 267 267 267 268 269 269 269 270 270 270 270 270 272 273 273 273 274 275 276 277 278 279 280 281 282 283 283 284 284 284 284 285 285
280 279 279 279 279 279 279 279 278 278 277 277 276 276 275 274 272 271 270 270 270 271 271 272 272 271 271 271 272 273 273 272 272 271 270 270 269 269 269 268 266 266 266 266 266 266 266 266 266 265 265 265 266 266 266 267 267 268 268 268 268 269 269 269 270 271 271 271 272 273 274 275 276 278 279 280 281 282 283 283 283 284 284 284 284
279 279 279 279 279 278 278 278 277 277 276 276 275 275 274 273 271 271 270 270 269 269 270 270 271 271 271 271 272 273 273 272 271 271 270 269 269 268 267 266 265 265 265 265 265 265 265 265 264 264 264 264 264 264 265 265 266 266 267 267 267 267 268 268 269 269 269 270 270 270 271 273 274 276 277 279 280 281 282 282 283 284 284 284 284
278 278 278 278 278 278 277 277 276 276 275 274 274 274 273 272 272 271 270 269 269 269 269 269 269 269 270 270 271 271 271 271 271 270 270 269 268 267 267 266 265 264 264 264 264 264 264 264 264 264 264 264 263 263 264 264 265 265 266 266 266 267 267 267 267 267 268 268 268 269 269 271 272 274 276 278 279 280 281 282 283 283 284 284 284
277 277 277 277 277 277 276 276 275 275 274 274 273 273 273 273 272 271 270 269 269 269 269 269 269 268 268 269 269 269 269 269 269 268 268 268 267 266 266 265 265 264 264 264 263 263 263 263 263 263 263 263 263 263 263 264 264 265 265 265 266 266 266 266 266 266 267 267 267 268 268 269 271 273 275 277 278 279 280 281 282 283 283 283 283
276 276 276 276 276 275 275 275 275 274 274 273 273 273 273 272 271 270 269 269 269 269 269 269 269 269 268 268 268 268 267 267 267 267 266 266 266 266 265 265 264 264 264 264 263 263 263 262 262 262 262 263 263 263 263 263 263 264 264 265 266 266 266 266 266 266 266 266 266 267 267 268 269 271 274 276 277 278 279 280 281 282 282 282 282
276 276 276 275 275 275 274 274 274 274 273 273 273 272 272 271 270 270 269 269 269 269 269 268 269 269 268 268 268 267 267 266 266 266 266 266 265 265 265 264 264 264 264 264 263 263 263 262 262 262 262 262 262 262 262 263 263 263 264 264 265 265 265 265 265 265 265 266 266 266 267 267 268 270 273 275 276 277 278 279 279 280 281 281 281
275 275 275 274 274 274 274 274 273 272 272 272 272 271 271 270 269 269 269 268 268 268 268 268 268 268 268 268 267 267 267 266 266 266 266 266 265 265 265 264 264 264 264 263 263 263 263 262 262 262 262 262 262 262 262 262 262 263 263 264 264 265 265 265 265 265 265 265 265 266 267 267 268 270 272 274 275 276 277 277 278 279 279 279 278
274 274 274 274 274 274 274 273 272 272 271 271 271 270 270 269 269 268 268 268 267 267 267 267 267 267 267 267 267 267 267 266 266 266 266 265 265 265 265 265 264 264 264 263 263 263 262 262 263 263 262 262 262 262 262 262 262 262 262 263 264 264 264 264 264 264 264 264 265 265 267 268 269 270 272 273 274 275 276 276 277 277 278 277 277
274 274 273 273 273 273 272 271 271 271 271 270 270 270 269 269 268 268 267 267 267 266 266 266 266 267 267 267 267 267 267 266 266 266 266 265 265 265 265 265 265 264 264 264 264 263 263 263 263 263 263 263 263 262 262 262 262 262 262 262 263 263 264 263 263 263 263 264 264 265 266 268 269 269 271 272 273 274 275 275 275 276 276 276 276
273 273 272 272 272 271 271 270 270 270 270 269 269 269 268 268 268 267 267 267 266 266 266 266 266 266 266 267 266 266 266 266 266 266 265 265 265 265 265 265 265 265 265 264 264 264 263 263 262 262 263 263 263 263 263 263 262 262 262 262 262 263 263 263 263 263 263 263 264 264 266 267 268 269 270 271 272 273 274 274 275 275 275 275 275
272 271 271 271 271 270 270 270 270 269 269 269 268 268 268 267 267 267 266 266 266 266 266 266 265 265 266 266 266 266 266 265 265 265 265 265 265 265 265 265 265 265 265 264 264 264 263 263 262 262 262 263 263 263 263 263 263 263 262 262 262 262 263 263 262 263 263 263 264 264 266 267 268 269 270 270 271 272 273 273 274 274 275 275 275
270 270 270 270 270 270 270 269 269 269 268 268 268 268 267 267 267 266 266 265 265 265 265 265 265 265 266 266 265 265 265 265 265 265 265 265 265 265 265 265 265 265 265 265 265 264 264 263 263 262 262 262 263 263 263 263 263 263 263 262 262 262 262 262 262 263 263 264 264 265 266 267 268 269 270 270 271 271 272 273 273 274 274 274 274
269 269 269 269 269 269 269 269 268 268 268 268 267 267 267 266 266 266 265 265 265 265 265 265 265 265 265 265 265 264 264 264 265 265 265 265 265 265 265 265 265 264 265 265 265 265 264 263 263 263 263 262 262 262 263 262 262 262 262 262 262 262 262 262 262 263 263 264 264 265 266 267 268 269 270 270 271 271 272 272 273 273 274 274 274
268 268 268 269 268 268 269 268 268 268 268 267 267 266 266 266 265 265 265 265 265 265 265 265 265 265 265 265 265 264 264 265 265 265 265 265 265 265 265 264 264 264 264 265 265 264 264 264 263 263 263 263 263 263 262 262 262 262 262 262 262 262 262 261 262 262 263 263 264 265 265 266 267 268 269 270 271 272 272 272 273 273 273 273 273
268 268 268 268 268 268 268 267 267 267 267 266 266 265 265 265 265 265 265 265 265 265 265 265 265 265 265 265 265 265 265 265 265 265 265 265 265 265 264 264 264 264 264 264 264 264 264 263 263 263 263 263 263 263 262 262 262 262 262 262 262 262 262 261 262 262 262 263 263 264 265 266 267 267 268 269 270 271 272 272 272 273 273 273 273
267 268 267 267 267 267 266 266 266 266 266 265 265 265 265 265 265 265 265 265 265 265 265 265 264 265 265 265 265 265 265 265 265 265 265 265 265 264 264 264 264 264 264 264 264 264 263 263 263 263 263 263 263 263 263 262 262 262 262 262 262 262 261 261 261 262 262 263 263 263 264 265 266 266 267 268 268 269 270 271 272 272 272 272 272
Wind_Speed
18 16 15 15 14 14 13 12 11 10 9 9 9 9 8 7 7 5 5 5 4 3 2 2 2 3 3 4 4 4 4 4 5 6 6 6 7 8 8 9 10 11 13 14 14 15 17 19 21 22 22 23 24 24 24 24 24 24 24 25 26 25 26 24 18 22 35 36 30 32 34 33 35 34 34 35 36 35 36 38 39 40 41 43 44
19 18 17 16 15 15 14 13 12 11 10 9 9 8 7 5 5 4 3 2 2 2 3 4 5 4 4 4 4 4 3 3 2 3 4 5 5 6 7 8 9 11 12 13 14 15 16 19 20 21 21 22 24 24 24 24 24 26 26 26 29 29 26 28 25 22 31 37 33 33 36 35 36 36 34 34 36 37 37 38 39 40 42 42 43
18 17 17 17 15 14 13 12 11 10 10 10 9 8 7 7 7 6 6 5 6 7 8 9 9 9 9 8 8 8 8 8 7 6 5 6 6 5 6 7 8 10 11 13 14 15 16 18 19 20 20 22 23 23 23 24 23 25 26 26 28 30 27 27 28 26 28 37 38 35 34 35 37 38 35 35 38 38 38 40 39 40 42 42 43
17 17 17 16 15 14 13 12 12 12 11 11 11 11 10 10 10 9 9 9 9 10 11 12 12 12 12 12 12 12 12 12 12 12 11 11 11 11 12 12 12 14 14 16 16 17 18 19 20 21 21 22 24 25 24 24 24 24 26 27 26 28 29 27 28 29 28 33 40 40 35 35 39 41 37 35 39 39 38 39 40 41 42 41 41
17 17 17 17 16 15 14 14 14 14 14 13 13 13 12 12 12 12 12 12 12 13 13 13 13 14 14 14 14 14 14 14 14 14 14 14 14 14 15 16 16 17 17 18 18 19 20 21 22 22 22 23 25 26 26 25 25 25 26 28 27 26 28 28 28 30 30 31 38 44 41 37 38 40 37 34 37 39 37 37 38 40 40 39 39
18 18 18 18 18 17 16 16 16 16 15 15 15 15 14 14 14 14 15 14 14 14 14 14 14 14 14 14 14 14 14 14 14 14 14 14 15 15 16 17 17 18 19 20 20 21 21 22 23 23 23 24 26 27 28 27 27 27 27 28 28 26 27 28 28 28 30 31 34 40 43 41 39 39 37 32 32 36 37 37 39 38 37 37 38
19 19 19 20 19 19 18 17 17 17 17 17 17 16 16 16 16 16 15 15 15 15 14 14 13 13 13 14 14 14 14 14 14 14 15 15 16 16 17 18 19 20 21 22 22 23 23 24 24 25 25 25 27 28 29 29 29 29 29 29 29 27 27 28 28 27 28 30 32 34 38 41 40 39 39 34 32 35 34 33 36 38 35 32 35
19 19 20 21 21 20 20 19 18 18 18 18 18 18 18 17 16 16 15 15 15 14 13 13 13 13 13 14 14 14 14 14 14 14 15 15 16 17 18 19 20 20 20 21 22 22 23 24 24 25 26 26 27 28 29 30 30 32 32 30 28 28 29 29 28 27 26 27 29 32 34 37 39 39 38 33 30 31 30 27 29 36 36 33 35
20 20 21 22 22 22 21 20 20 20 19 19 19 18 18 17 16 15 14 14 13 13 12 12 12 13 13 13 13 13 13 14 14 15 15 15 16 16 17 18 19 20 20 21 21 21 23 24 24 25 25 26 27 28 29 29 29 32 34 32 29 29 30 30 29 27 26 25 27 31 30 31 34 35 33 31 29 29 30 28 28 33 36 36 38
21 22 22 23 23 23 22 22 21 21 20 20 19 18 17 16 15 14 13 13 13 12 11 11 12 12 13 13 13 13 13 14 14 14 14 15 15 16 16 17 18 19 21 22 22 22 22 23 24 24 25 26 27 27 29 30 30 31 33 33 32 31 31 32 31 28 25 23 26 28 26 27 33 34 32 34 35 33 31 29 28 31 32 29 34
23 23 23 23 24 24 24 23 22 21 21 20 19 17 16 15 14 13 13 12 12 11 11 11 12 12 13 13 13 13 13 13 13 13 13 13 14 15 16 17 17 18 20 22 23 24 24 24 24 24 25 26 27 28 29 30 31 32 33 33 33 32 32 33 33 32 27 25 27 29 27 27 34 37 35 36 36 33 30 29 27 28 26 20 20
25 24 24 24 24 25 24 24 23 22 20 19 18 16 15 14 13 12 12 12 11 11 11 11 12 12 13 13 13 13 13 12 12 12 12 12 13 15 15 17 18 19 20 21 23 24 25 26 27 27 27 27 28 29 30 31 32 33 33 34 34 34 33 33 35 35 32 30 29 31 31 32 35 37 37 36 34 33 32 30 28 26 25 22 18
26 26 25 24 24 25 24 24 22 21 19 17 16 15 13 12 12 11 11 11 11 11 11 11 12 12 12 13 12 12 11 11 12 12 12 12 13 14 15 16 18 19 20 22 23 24 26 28 30 31 31 30 29 30 32 34 35 35 36 36 37 37 36 35 35 35 35 35 34 34 37 38 36 38 41 39 36 35 33 31 30 28 26 26 25
27 27 25 24 25 24 23 22 21 19 17 16 14 13 12 12 12 11 11 11 10 11 11 11 11 11 12 12 12 11 11 11 12 13 13 14 15 16 17 18 19 21 22 23 25 26 26 28 30 33 35 33 31 31 32 34 36 38 39 38 39 40 39 39 37 34 35 37 37 39 43 44 43 44 47 45 42 39 36 34 33 32 32 34 35
27 27 26 24 24 23 22 20 19 17 16 14 13 12 12 11 11 11 10 10 10 10 11 11 11 11 11 11 11 11 11 12 14 15 16 17 18 19 20 21 23 24 26 26 27 27 28 28 29 33 35 36 34 31 30 32 35 38 39 39 40 40 40 40 37 34 35 36 37 41 43 45 46 47 48 47 46 45 43 41 40 39 40 40 38
27 26 25 24 22 21 20 19 18 16 14 13 12 12 12 11 11 10 10 10 10 10 10 10 10 10 11 11 12 12 13 14 15 16 17 18 19 20 22 24 25 27 29 29 29 29 29 29 30 33 35 37 36 33 31 31 33 36 38 39 41 42 43 43 39 35 36 36 37 39 41 42 45 46 47 48 47 48 47 45 43 40 37 33 30
26 25 24 23 21 20 18 17 16 15 14 13 13 12 11 11 10 10 10 9 9 10 9 10 11 11 12 12 12 13 14 15 15 16 17 18 19 21 23 25 27 29 31 31 32 33 32 31 31 32 35 36 36 35 33 32 33 34 35 37 39 42 45 45 42 40 39 37 38 40 40 42 44 45 46 46 46 47 45 40 39 37 31 22 18
25 24 23 22 20 19 17 16 16 15 14 13 13 12 11 10 10 9 9 8 9 9 10 10 11 12 12 12 12 12 13 14 14 16 17 18 20 22 24 26 28 29 32 34 35 36 35 34 31 30 32 34 35 34 34 34 34 34 34 36 37 39 43 45 44 45 45 44 43 42 42 43 44 44 45 46 46 46 43 40 40 38 31 23 19
24 23 22 21 19 18 17 16 15 15 14 13 13 12 10 10 9 8 8 8 8 9 9 10 11 11 11 11 11 11 12 14 16 17 19 20 21 22 23 25 28 30 33 36 38 39 38 36 33 29 29 31 32 34 35 35 36 35 35 36 35 36 41 43 44 45 46 47 48 48 48 48 47 45 45 46 45 44 42 43 42 38 33 29 26
23 22 21 20 19 18 17 16 15 14 14 13 12 11 10 9 8 7 7 7 8 8 9 10 10 11 11 12 12 12 14 17 18 19 20 21 21 22 22 24 27 30 33 34 36 39 40 39 37 33 31 30 32 34 36 36 36 37 37 35 34 36 41 43 43 45 46 48 50 51 51 50 47 45 43 41 41 40 39 39 38 37 36 33 31
22 22 21 19 19 17 16 15 14 13 13 12 11 10 9 8 7 7 7 7 7 8 8 10 11 12 13 13 14 15 17 19 20 20 21 21 21 21 22 23 24 27 31 32 31 34 36 38 39 37 34 34 36 37 37 37 37 38 37 35 35 38 41 41 43 45 45 46 47 46 45 44 42 41 40 39 39 39 37 36 35 36 36 34 33
22 21 20 19 18 17 16 15 14 13 12 11 10 9 9 8 7 7 7 7 7 8 9 11 12 13 14 15 16 17 18 19 20 21 21 21 21 21 21 22 22 23 27 30 31 32 33 35 37 37 36 37 39 39 39 39 38 37 36 36 37 38 39 39 41 41 40 41 40 40 40 41 39 39 39 38 39 38 36 35 35 34 34 35 36
22 21 20 19 18 17 16 15 13 13 11 10 10 10 9 9 8 7 7 7 8 9 10 11 12 13 15 16 16 18 19 20 21 22 21 21 20 19 18 19 21 22 24 28 30 32 33 35 36 37 37 38 39 39 39 39 37 35 36 37 38 39 40 39 38 37 37 37 37 36 38 39 39 40 40 40 40 40 38 37 36 34 34 36 37
22 21 20 19 18 16 15 14 13 12 11 11 11 11 10 9 8 8 7 8 8 10 11 12 13 14 16 17 18 19 20 21 22 22 21 21 20 20 19 19 20 21 23 27 29 30 32 34 35 36 36 37 37 37 37 36 35 36 37 38 39 40 39 37 36 36 36 35 34 34 36 38 39 40 42 43 43 43 41 39 37 36 36 37 37
22 21 20 18 17 16 14 13 12 12 12 11 11 11 10 9 8 7 7 7 9 10 11 12 13 15 16 18 19 20 21 22 22 22 21 21 21 21 20 20 20 21 24 26 27 28 29 31 33 34 35 35 35 35 36 35 36 37 37 38 38 37 36 36 36 36 35 34 35 35 37 39 40 41 43 43 42 41 39 38 38 37 36 36 36
22 20 19 17 17 15 14 14 13 12 11 11 10 10 9 7 7 7 7 7 8 9 10 11 13 14 16 18 19 19 20 21 21 23 24 25 24 22 21 22 22 22 24 25 27 28 29 30 31 31 32 33 33 33 34 35 36 36 37 37 37 36 35 36 37 36 35 36 37 36 37 39 41 41 40 38 37 37 36 36 36 35 34 34 33
21 20 18 17 16 15 14 14 13 12 11 10 9 8 8 7 7 7 7 7 8 9 10 11 12 14 16 17 17 17 18 20 22 25 27 28 27 26 26 26 26 27 28 30 31 31 31 30 29 28 29 30 31 31 33 34 33 34 35 36 36 36 36 36 36 36 35 36 37 37 39 40 40 38 37 35 34 34 34 34 33 32 34 34 30
20 20 18 17 16 15 14 13 12 11 10 9 9 9 8 8 8 8 8 8 8 9 9 10 11 12 14 16 16 16 16 19 23 25 26 27 27 28 29 29 30 30 31 32 33 33 31 29 28 28 29 31 33 33 33 33 33 33 33 33 34 37 37 36 36 36 35 35 36 38 39 39 38 36 35 34 34 34 34 33 32 31 31 29 23
20 19 18 17 16 15 14 13 12 12 11 10 10 9 9 10 9 9 8 7 7 7 8 9 8 8 9 11 14 16 17 18 19 20 20 21 23 25 27 28 29 30 30 29 29 29 28 27 28 29 30 32 33 32 31 32 33 34 34 33 34 37 37 36 36 37 37 38 38 38 38 38 37 36 35 34 35 35 34 33 32 30 29 26 23
20 19 18 17 16 15 14 13 13 12 11 11 10 10 11 11 11 10 8 8 8 7 7 7 5 5 6 8 10 12 13 15 16 17 18 19 19 20 21 23 25 26 28 28 26 24 24 26 27 27 27 27 27 27 29 31 33 35 37 37 36 36 37 37 37 38 39 39 38 37 38 37 36 37 36 35 36 36 34 33 32 29 27 24 23
21 19 18 17 16 16 15 14 13 12 11 11 11 11 13 13 11 9 9 10 10 8 6 5 5 5 6 8 10 10 10 12 15 17 18 19 19 19 20 21 22 22 24 24 23 23 23 24 25 26 26 24 23 24 26 29 30 33 37 39 37 35 36 38 39 40 40 39 37 37 38 37 37 37 37 35 34 34 33 32 30 28 27 25 23
20 19 19 17 16 16 15 14 13 12 11 11 12 12 14 14 12 10 11 11 10 7 5 6 7 8 8 8 9 10 10 12 15 17 18 19 20 20 21 21 21 20 20 20 19 21 22 22 22 24 25 25 25 25 25 26 28 30 32 33 33 34 35 38 40 39 38 36 36 37 37 37 37 38 37 35 34 33 31 30 28 27 27 26 23
19 19 19 18 17 17 16 15 14 13 11 11 11 12 12 12 12 12 11 11 9 6 6 7 8 8 7 6 7 8 10 12 14 17 18 19 20 21 21 20 20 19 20 20 19 20 20 20 20 21 23 25 27 27 26 26 27 28 28 28 29 32 36 38 38 36 35 35 36 37 37 37 37 37 36 36 35 33 30 29 27 25 23 22 21
18 18 18 18 18 17 16 15 14 13 12 11 10 10 10 10 10 11 11 10 9 7 7 8 8 8 7 5 6 8 10 12 14 16 17 18 19 19 20 20 21 21 20 20 19 20 20 19 18 20 22 25 26 26 27 27 27 27 28 28 29 31 35 37 34 32 34 36 36 35 35 35 35 35 35 35 35 32 30 28 26 24 22 21 20
18 18 18 18 17 17 16 15 14 13 12 10 10 9 9 8 8 9 9 9 8 7 7 8 8 7 6 5 7 9 11 12 14 15 16 17 17 18 20 23 24 23 21 19 18 18 18 18 19 22 24 25 25 26 28 28 28 29 30 31 31 32 34 34 31 31 33 35 35 34 34 35 35 35 35 35 33 30 28 27 26 24 23 22 19
20 19 19 18 17 16 15 14 13 12 11 10 10 9 9 8 8 8 8 7 7 6 5 6 7 6 5 6 7 8 10 12 13 14 15 15 16 18 20 22 22 21 20 19 18 17 17 19 21 24 25 26 26 28 29 28 29 30 30 31 32 34 33 32 31 32 33 34 34 35 36 36 36 36 35 33 31 30 29 29 27 25 23 22 20
21 20 20 19 18 16 15 14 13 12 11 10 10 10 9 8 8 7 7 6 5 4 3 4 5 5 4 6 7 8 10 11 11 12 14 14 15 17 18 18 18 18 18 19 18 18 19 22 23 25 26 27 29 30 29 29 30 30 30 30 33 33 32 30 31 32 33 33 34 36 37 36 36 36 34 30 29 30 31 30 28 24 23 23 21
21 20 19 18 18 17 16 15 14 13 12 11 10 10 9 8 7 7 6 5 3 2 2 3 3 4 5 6 8 9 10 11 11 13 14 15 16 17 17 16 16 16 17 18 18 19 22 24 24 25 26 28 30 30 30 30 29 29 30 31 32 32 30 30 32 33 34 33 34 36 37 35 34 35 34 31 29 30 31 30 29 25 23 22 20
21 20 20 19 18 17 17 16 15 14 13 12 11 10 9 7 6 5 4 3 2 1 1 1 2 3 5 7 8 9 10 12 13 14 15 16 16 16 15 15 15 16 17 18 19 20 22 24 25 26 27 28 29 30 30 30 30 30 30 31 31 32 32 33 34 35 34 34 36 39 42 41 36 34 34 33 31 31 31 30 29 26 23 21 20
23 22 21 20 19 18 17 17 16 15 14 13 12 10 9 7 6 5 3 2 2 1 1 2 2 3 4 6 8 8 10 11 12 13 15 15 15 15 15 15 16 17 18 20 21 22 23 25 25 26 26 27 28 28 29 29 29 29 30 30 29 31 32 33 33 34 35 36 37 39 44 47 41 34 32 32 32 31 30 29 27 26 24 22 20
24 23 22 21 20 19 18 17 16 15 14 13 12 10 9 8 7 5 4 4 3 3 3 4 4 3 4 5 6 7 8 10 11 12 14 15 15 16 16 16 16 17 19 20 22 23 24 25 26 26 26 26 27 27 28 28 28 28 29 29 28 29 31 31 32 33 35 37 38 38 42 48 44 34 30 32 33 32 30 28 27 26 24 22 20
24 24 23 21 21 20 19 18 17 16 15 13 12 10 9 8 7 6 6 6 5 5 5 6 5 4 4 5 6 6 7 9 10 12 13 14 15 16 16 17 18 18 19 20 21 23 24 25 26 27 26 26 27 27 27 28 28 28 28 27 28 29 30 30 32 33 35 37 40 42 44 47 44 36 31 32 32 31 29 28 26 25 23 21 19
24 23 22 22 21 20 19 18 17 17 15 14 12 11 10 9 8 7 8 8 7 7 8 8 7 6 5 5 6 6 8 9 10 12 13 14 15 16 17 18 18 19 20 20 21 21 23 25 26 27 27 26 26 26 26 27 27 27 27 26 26 27 29 30 32 34 35 37 40 43 45 45 43 36 32 31 32 30 29 28 26 24 22 20 18
24 23 22 22 21 19 19 18 18 17 15 13 12 12 11 10 9 10 10 9 8 9 9 10 9 7 6 6 6 7 8 9 11 12 13 14 15 16 17 18 19 19 20 21 21 21 22 24 25 26 27 26 26 26 25 26 26 25 26 26 25 26 28 30 32 34 35 36 39 41 43 43 41 36 32 31 31 29 27 27 27 24 21 19 17
24 24 23 22 21 20 19 18 17 16 15 14 13 13 11 11 11 11 10 10 10 10 11 11 10 9 8 7 7 8 9 10 12 13 14 15 17 17 18 18 19 20 21 22 22 22 22 24 25 26 27 27 26 26 25 25 25 25 25 25 25 25 27 30 32 33 34 35 36 38 40 40 38 36 32 31 30 28 25 25 26 24 21 18 16
25 24 23 23 22 21 20 19 17 16 16 15 14 13 13 13 13 12 12 12 12 12 12 11 10 10 9 9 9 10 11 12 13 14 15 16 18 18 19 20 20 21 21 22 23 23 23 24 25 26 27 27 27 27 26 25 25 25 25 24 24 24 26 29 32 33 33 33 34 36 37 37 36 34 32 30 29 28 26 25 24 22 20 18 16
24 23 23 22 22 21 20 19 18 17 16 15 15 15 14 14 14 13 13 13 13 13 13 12 11 11 11 11 11 12 13 14 15 16 17 18 18 19 20 20 21 22 22 22 23 24 24 25 25 25 26 27 27 27 26 26 25 24 24 25 24 23 24 29 32 32 32 32 32 33 34 34 33 32 31 29 28 27 26 24 23 21 18 16 14
24 23 22 22 22 21 20 20 19 18 17 16 16 16 15 15 15 15 14 14 13 13 13 13 12 12 12 13 13 14 14 15 16 17 17 18 19 19 20 21 21 23 23 24 24 24 25 26 26 26 26 27 27 27 27 26 25 24 24 24 24 22 23 27 30 30 30 30 30 31 31 31 30 30 29 27 25 25 24 22 21 19 17 15 13
24 23 23 22 22 21 20 20 19 19 18 17 17 17 17 16 16 15 14 14 14 14 14 14 14 14 14 15 15 15 15 16 17 17 18 19 19 20 21 21 22 23 24 25 25 26 26 26 27 27 27 27 26 26 26 26 26 25 24 24 23 23 23 25 28 28 28 28 28 29 29 28 28 27 27 25 23 22 21 20 18 16 15 13 12
24 23 22 22 21 20 19 19 19 18 18 18 18 18 17 17 17 16 15 14 15 14 14 15 15 15 16 16 16 16 16 17 17 18 18 19 20 21 22 23 23 24 25 26 27 27 28 28 28 28 28 27 26 26 25 25 25 25 24 23 23 22 22 24 26 27 26 26 26 27 27 26 25 25 25 24 22 21 20 18 16 14 12 11 10
23 22 21 21 20 19 19 19 19 19 19 19 19 19 18 17 17 16 15 15 16 15 15 16 16 16 16 16 16 17 17 17 18 19 19 20 21 22 23 24 25 25 26 27 27 28 29 30 29 29 28 28 27 26 25 24 24 24 23 22 22 22 21 22 24 26 25 24 24 25 25 24 24 23 23 22 21 20 19 18 16 13 11 9 8
Wind_Direction
169 171 169 168 168 167 171 176 179 183 187 192 196 198 204 210 212 221 229 239 250 258 280 319 335 333 326 322 319 308 299 294 292 296 294 288 281 283 289 293 295 297 299 301 303 304 304 303 304 306 308 306 303 303 302 301 298 293 289 286 281 279 279 277 277 284 287 288 287 289 291 292 290 288 286 286 287 287 286 284 284 284 283 283 283
171 172 171 171 173 174 177 181 182 186 188 188 189 186 184 183 178 174 177 182 163 117 90 79 70 60 52 36 26 24 20 10 341 315 301 296 288 283 288 294 298 300 301 303 304 303 302 301 303 306 307 305 303 303 302 300 300 296 293 291 288 286 284 279 275 279 287 290 290 290 292 293 292 291 290 290 289 289 288 285 285 284 283 283 282
169 171 170 171 172 172 173 173 173 174 174 173 170 165 158 150 141 134 131 127 113 102 93 88 84 79 76 70 66 64 60 57 49 39 27 11 5 354 337 328 324 322 322 323 321 318 316 313 314 315 314 312 310 310 309 306 304 301 298 295 291 289 286 280 275 273 281 289 291 291 292 293 291 291 291 291 290 289 287 286 286 284 283 283 282
164 166 166 165 164 164 162 162 165 163 160 156 151 145 138 129 126 124 121 116 107 101 96 91 88 83 78 72 67 63 58 54 49 43 38 29 23 17 10 3 357 351 347 343 339 334 330 326 326 325 320 318 317 317 316 313 309 306 302 300 296 292 291 285 277 274 276 285 290 291 292 292 291 291 292 291 290 289 287 287 287 285 284 282 281
162 162 161 158 156 157 157 158 158 153 147 143 136 132 128 123 122 120 116 111 104 99 93 87 82 76 70 64 59 55 50 45 41 36 31 26 20 15 10 5 0 355 350 346 342 338 334 332 332 331 326 321 321 320 319 315 311 307 303 301 298 295 293 289 282 278 275 277 286 291 293 292 291 291 292 291 291 291 289 288 287 286 285 284 282
159 159 158 156 153 153 153 151 149 143 139 135 131 128 125 122 120 116 112 108 101 95 88 82 76 69 65 60 56 51 46 41 36 31 26 21 16 11 6 1 357 354 350 347 344 340 337 336 334 333 329 323 321 321 319 316 312 307 303 301 300 297 294 291 287 283 278 277 281 288 292 293 292 292 292 292 291 290 290 290 289 286 284 284 284
159 158 157 153 149 148 147 145 143 139 135 132 129 127 124 122 119 115 110 105 98 92 85 79 74 68 63 59 55 50 44 37 32 28 22 17 12 8 3 360 356 354 352 349 348 344 341 339 336 333 330 325 321 320 317 314 311 306 302 300 299 297 294 291 289 285 281 280 280 282 286 290 291 290 291 293 290 285 285 286 288 289 287 284 284
158 156 154 150 146 144 143 142 139 136 134 132 129 127 124 121 117 111 107 102 96 90 85 79 74 68 62 56 52 47 40 34 28 23 18 12 9 4 0 358 354 352 351 348 347 345 341 339 337 333 330 327 323 320 316 312 308 304 302 299 296 295 292 290 288 284 280 278 279 280 282 285 287 288 291 292 286 282 281 278 280 286 290 288 286
155 153 151 146 144 143 141 140 138 135 133 131 128 126 122 117 114 110 105 100 94 89 84 78 72 66 60 55 49 43 37 31 24 18 13 7 4 1 358 355 351 347 346 345 345 343 340 338 336 334 331 328 325 322 319 315 307 303 303 301 295 292 290 288 284 282 279 276 277 279 280 281 282 285 288 286 280 281 285 282 277 281 286 287 286
153 152 149 144 142 142 140 139 136 134 132 130 127 125 121 119 118 112 106 99 92 85 80 74 68 62 57 53 46 40 36 30 23 16 9 3 359 357 354 352 350 346 342 342 342 342 341 337 334 333 331 328 327 324 321 319 313 308 306 304 298 292 288 286 283 280 277 274 274 277 278 277 279 281 282 282 283 284 285 284 281 282 285 284 285
152 151 147 143 142 141 139 137 135 134 133 131 128 126 125 125 120 112 105 96 89 83 76 69 63 56 52 48 42 37 33 28 23 15 8 1 354 352 352 349 348 346 342 340 339 338 337 335 333 331 329 328 327 324 321 319 317 314 311 307 302 295 287 283 282 282 280 275 274 276 276 276 279 282 283 284 286 287 286 285 283 282 281 278 281
152 149 145 143 142 140 139 138 137 136 134 132 130 128 128 125 116 108 100 91 84 78 70 64 59 54 50 47 42 38 33 28 24 16 8 2 354 350 350 348 345 345 343 339 336 335 333 332 330 329 328 328 326 324 323 321 319 317 313 309 305 299 292 285 281 280 280 278 277 276 276 277 280 283 284 286 288 289 289 287 283 278 277 274 273
152 149 146 146 143 141 142 141 139 137 134 131 129 127 126 119 109 101 93 86 81 75 68 61 57 54 52 50 45 40 36 29 23 18 10 4 359 355 352 348 345 343 341 338 336 334 332 330 329 329 329 328 326 326 325 323 322 319 315 311 308 304 300 294 287 282 279 277 274 274 275 277 279 280 282 285 288 289 289 287 285 281 276 274 274
151 149 149 148 145 143 144 143 139 136 132 129 128 126 119 110 101 95 89 86 82 76 71 65 60 57 54 54 49 41 35 28 20 16 12 7 3 359 354 349 345 342 340 339 336 334 333 331 329 329 330 329 328 328 327 324 323 319 316 313 309 307 304 300 296 291 284 278 273 273 276 278 278 280 282 285 286 286 286 285 285 284 280 278 278
150 150 149 148 146 146 145 142 138 134 131 130 126 120 112 105 101 96 91 87 81 76 73 69 66 61 55 54 51 42 34 27 20 15 11 8 2 358 354 349 346 343 341 341 338 336 336 334 331 330 331 330 330 330 328 324 321 317 314 313 310 308 305 302 300 297 292 286 279 277 278 279 279 280 282 284 285 284 284 285 284 283 281 280 279
150 150 149 147 146 145 144 142 138 133 132 130 124 118 114 110 107 100 95 92 85 81 76 70 66 62 55 51 47 42 33 26 21 15 10 6 0 357 353 349 347 344 342 342 341 339 338 337 335 333 331 329 330 330 328 324 320 316 314 313 311 309 306 305 305 302 297 293 288 284 283 283 283 283 284 284 284 284 286 285 283 282 279 277 277
151 151 149 146 145 144 143 141 138 135 134 130 126 123 120 116 112 107 104 99 91 85 76 67 62 57 53 49 42 37 31 25 19 11 7 4 360 357 353 350 347 345 342 341 340 338 337 336 336 333 330 328 328 327 326 324 320 316 314 312 311 308 307 307 308 306 302 299 295 291 289 288 287 287 286 286 285 286 286 284 281 282 281 277 275
153 152 148 146 145 144 143 142 140 137 137 134 130 127 124 119 114 108 103 94 85 80 73 66 60 54 53 51 43 34 27 22 15 9 7 5 2 360 357 351 348 344 340 336 334 332 332 332 333 332 329 326 325 323 323 323 320 317 314 312 309 306 307 309 310 308 307 305 302 298 296 294 292 290 289 289 288 287 284 281 280 281 281 277 276
153 152 149 147 147 145 144 144 143 140 138 135 132 129 124 118 111 103 98 89 78 73 68 63 59 56 56 52 46 37 25 17 13 10 10 8 5 4 360 353 346 341 336 333 330 329 329 329 330 330 327 325 323 321 321 321 319 316 314 312 308 305 307 310 310 309 309 309 307 305 302 300 297 294 292 291 290 287 282 280 278 276 274 274 274
154 153 151 149 149 148 147 146 144 142 139 135 132 128 123 118 113 104 97 89 79 71 64 61 59 59 57 49 42 33 21 15 12 9 8 9 7 3 358 352 346 339 335 333 331 329 329 329 329 329 328 325 323 321 320 319 318 316 314 312 307 306 309 310 309 309 309 308 306 305 303 302 300 297 295 293 292 289 284 282 279 273 270 270 268
155 154 153 152 151 150 149 148 146 143 139 135 133 130 124 121 116 106 99 89 79 71 61 56 55 54 50 42 32 25 17 12 10 7 7 8 5 1 357 355 350 340 334 332 330 327 327 327 327 328 328 325 323 321 319 318 318 316 314 311 308 308 310 310 310 309 308 305 304 303 302 301 300 297 295 294 293 290 286 283 282 277 271 268 268
157 155 154 154 153 152 151 150 148 145 141 138 135 132 127 122 114 105 98 87 76 66 53 46 44 43 41 34 25 18 13 10 9 9 9 7 3 3 0 355 349 341 333 329 328 326 325 324 325 326 325 324 322 321 320 320 320 318 315 314 313 313 313 310 308 305 302 300 300 299 300 300 299 297 296 294 292 290 287 284 283 281 277 273 270
158 156 156 156 156 155 153 152 150 146 144 141 137 132 126 120 112 103 93 79 66 53 40 33 29 29 29 25 19 13 9 8 10 10 9 7 4 3 0 352 347 342 334 328 326 325 324 324 324 323 323 322 321 320 320 320 320 319 318 317 317 316 314 310 306 303 300 299 298 297 297 298 298 298 297 295 294 293 290 286 282 280 280 278 273
159 158 159 160 158 157 155 153 152 149 146 144 139 132 125 118 108 96 81 66 53 42 32 24 20 20 20 17 13 10 8 8 10 9 7 5 3 0 356 351 347 342 334 328 325 324 323 322 321 321 321 320 320 320 320 321 321 320 320 320 319 318 316 313 312 310 307 304 303 301 301 300 299 299 300 299 298 296 293 289 285 283 283 281 277
162 162 162 161 159 159 156 154 153 151 148 146 140 132 126 117 104 90 75 59 50 42 34 26 20 18 17 13 9 8 8 9 9 6 3 3 2 358 354 349 345 339 332 327 325 322 319 319 319 320 320 320 321 322 322 323 323 322 322 323 322 321 320 319 318 316 312 309 307 306 306 306 305 304 304 304 302 299 296 293 290 288 287 284 280
165 164 163 162 161 161 160 157 156 153 150 147 140 131 123 114 105 95 82 68 58 49 39 30 23 18 14 10 6 5 8 8 4 1 1 2 360 355 351 346 341 337 333 329 326 324 322 322 322 321 321 320 321 322 322 322 323 324 325 326 325 324 323 322 320 317 313 311 310 308 308 309 309 308 308 307 304 301 300 297 294 291 289 287 283
167 166 165 165 165 164 163 160 157 154 150 145 138 130 123 119 115 105 92 75 64 57 46 35 26 17 10 5 2 2 4 4 3 2 1 359 355 351 349 346 343 342 340 337 334 330 327 325 325 324 323 322 322 323 324 325 325 326 327 327 327 326 325 323 320 317 313 311 310 309 309 310 310 309 308 307 304 303 302 300 296 293 292 288 283
169 169 169 168 167 166 164 161 157 153 149 145 142 137 133 130 123 109 91 72 64 63 56 44 31 18 6 360 357 358 0 3 3 1 357 354 351 348 348 348 346 344 342 338 334 331 329 329 330 330 329 329 329 329 330 330 329 329 329 329 329 328 327 326 323 319 316 313 311 310 310 310 309 308 308 306 304 305 306 303 299 296 294 292 285
172 172 171 169 169 167 165 162 159 156 152 149 147 144 141 137 129 115 98 82 75 71 63 55 39 16 7 4 358 354 355 359 359 355 352 352 351 349 348 347 345 342 339 337 334 333 332 333 334 334 333 333 332 333 334 334 333 332 332 333 332 331 330 329 325 322 320 319 315 313 313 312 310 310 310 307 306 307 307 305 302 299 297 294 290
173 173 173 172 172 170 168 164 161 160 156 151 148 145 142 139 131 122 114 107 104 95 80 71 55 16 11 18 13 1 353 351 350 349 351 354 355 354 351 348 346 344 341 339 339 339 338 336 335 336 336 336 336 336 337 336 334 332 332 333 334 334 332 331 329 327 325 322 319 319 319 318 316 315 314 311 309 308 308 305 303 300 296 293 290
176 175 176 176 175 173 172 169 166 164 157 150 146 144 143 140 134 131 127 119 114 109 97 88 78 54 30 20 18 12 359 349 348 350 354 356 358 359 356 353 352 350 347 345 345 344 342 339 338 339 340 339 338 337 335 333 332 331 331 332 333 334 334 333 332 330 327 325 324 324 325 323 320 318 317 314 311 310 309 308 305 301 298 295 291
182 179 179 179 179 178 177 174 171 168 162 153 148 147 149 146 140 137 132 124 122 120 103 85 76 66 49 28 18 11 1 355 354 356 358 359 359 360 358 356 355 354 354 355 352 345 342 339 337 337 338 336 334 333 332 331 329 330 330 331 332 334 334 333 332 330 329 328 328 328 327 324 322 321 319 317 315 312 310 310 309 305 302 300 295
188 185 184 183 183 183 182 180 176 172 168 162 153 149 152 151 144 140 135 130 130 125 98 82 75 67 57 42 25 13 5 4 4 4 2 1 0 359 355 354 358 1 1 0 354 343 338 336 334 334 334 332 329 329 330 330 328 329 330 330 329 329 331 333 332 331 331 332 331 329 328 326 325 324 322 322 321 318 315 314 312 309 306 303 300
190 190 190 189 187 187 186 184 181 175 169 166 159 150 148 146 140 137 135 133 129 114 91 81 75 69 61 48 29 17 15 16 14 10 6 4 2 357 352 355 4 9 7 2 352 340 334 333 331 331 331 329 328 328 329 329 329 329 329 328 327 327 329 332 333 332 333 334 333 330 329 328 326 325 324 325 324 321 319 318 316 313 309 306 303
190 191 192 192 192 192 190 187 185 180 172 166 161 154 148 141 133 127 125 122 114 98 86 82 78 70 58 43 33 24 21 21 19 14 11 7 2 356 356 1 5 5 3 359 349 337 332 330 327 327 327 326 326 327 327 327 327 328 327 327 327 328 329 329 330 331 333 335 333 331 330 329 327 326 325 325 324 322 321 320 318 315 313 310 306
192 193 193 194 194 194 193 190 188 185 179 171 165 159 153 145 136 129 122 115 104 92 81 78 78 73 54 35 32 28 25 24 21 15 13 10 4 1 4 5 1 355 352 350 344 334 329 326 325 325 325 325 324 326 326 325 325 326 326 326 328 329 329 328 328 330 331 332 333 333 332 330 328 327 326 325 324 323 322 320 317 313 312 311 308
195 196 196 196 195 193 193 192 189 187 184 178 172 165 159 153 146 138 128 119 111 103 89 73 67 63 46 27 24 24 24 22 18 14 12 10 7 8 9 5 355 347 343 341 337 330 327 326 327 326 326 325 325 326 326 325 325 325 326 327 328 329 328 327 327 329 329 329 330 332 332 330 328 328 327 325 324 324 323 321 318 313 311 313 312
198 198 197 197 196 195 194 192 190 188 186 183 179 173 167 162 156 146 135 129 133 137 107 74 48 36 30 22 17 15 13 10 7 6 6 5 5 6 5 359 350 342 336 334 332 327 325 327 328 328 327 327 328 328 327 327 326 326 326 327 328 329 328 328 329 330 330 328 327 328 330 328 326 327 328 326 324 325 325 324 322 320 317 318 318
197 197 198 198 197 197 195 193 192 191 188 187 186 181 176 171 164 156 153 157 172 170 100 47 17 14 17 15 12 6 0 359 359 356 354 355 356 356 354 348 342 337 333 331 329 326 325 326 328 328 328 328 329 330 329 328 327 327 327 327 328 329 331 332 332 332 332 330 328 329 332 332 328 325 327 327 326 326 327 327 327 329 328 325 324
197 197 198 198 197 197 196 194 194 194 192 192 192 186 181 178 175 173 185 211 221 229 298 316 332 356 4 5 6 358 347 345 347 343 341 342 343 343 342 338 334 333 332 330 328 327 326 326 326 326 327 327 328 329 329 329 328 329 329 328 327 328 330 332 332 332 332 332 330 330 333 335 332 326 324 328 329 328 328 329 331 334 336 334 332
200 199 199 198 197 197 196 196 196 196 194 195 195 190 185 185 188 195 214 233 241 253 274 289 307 333 346 351 356 347 333 330 332 331 332 333 333 332 332 330 329 330 330 329 328 328 327 326 325 324 324 324 325 327 329 330 330 330 329 328 327 327 329 331 332 332 332 332 332 332 334 336 335 327 322 326 330 330 330 332 334 337 341 344 345
201 200 199 198 197 197 198 197 196 195 196 197 195 191 190 193 200 214 230 239 247 260 272 284 298 312 326 336 340 332 324 323 325 326 328 330 330 329 329 329 329 329 328 327 327 328 327 325 325 324 323 323 324 326 327 328 329 329 328 327 327 328 329 329 331 332 332 331 333 335 337 338 337 331 325 328 332 333 333 334 336 340 346 352 357
203 202 200 200 199 199 199 197 195 196 199 199 195 193 198 205 214 227 236 242 251 262 272 281 292 300 309 321 325 323 322 324 325 325 326 327 329 329 330 331 331 330 328 327 327 327 325 323 323 323 323 324 325 326 326 327 328 327 326 325 324 326 329 329 330 332 332 332 333 336 338 340 340 335 328 329 334 336 336 337 339 342 348 356 2
203 201 200 200 200 199 198 197 198 200 199 198 197 199 205 216 225 231 237 245 254 262 269 276 284 290 299 310 316 317 320 322 321 321 322 323 325 327 328 329 330 329 328 329 329 328 325 322 321 321 321 322 325 327 327 328 329 328 326 324 322 323 327 330 331 331 332 331 332 334 337 340 341 338 332 331 335 338 339 341 343 344 349 357 6
203 202 200 200 199 198 198 198 200 200 199 200 204 207 213 222 228 231 237 246 255 262 266 271 276 282 290 302 308 309 313 314 314 315 317 319 321 323 324 325 325 325 325 326 327 328 327 324 322 321 320 320 322 324 326 328 330 329 328 327 323 320 325 329 330 331 333 332 332 333 335 339 341 340 335 333 335 337 339 343 347 349 351 357 6
203 202 201 201 200 199 199 199 199 200 202 206 211 215 219 226 231 236 242 248 254 260 265 268 272 277 285 294 299 301 305 307 308 311 315 316 318 320 321 321 321 320 320 321 322 323 324 323 322 322 321 320 320 321 321 324 327 328 330 330 326 322 324 328 330 333 335 336 335 335 336 337 339 341 339 337 338 340 342 346 350 354 357 0 8
204 203 203 203 202 201 200 200 201 204 207 212 218 223 227 231 236 241 245 248 253 259 263 267 272 276 283 290 294 297 301 304 306 311 315 316 318 321 321 321 320 319 319 319 319 319 319 320 319 319 321 322 322 321 320 320 322 324 327 330 329 326 325 327 330 334 337 337 338 338 338 338 339 341 343 342 342 343 345 348 352 357 2 5 11
203 203 204 205 204 202 201 201 203 208 212 217 223 229 233 237 241 243 245 248 253 257 262 267 273 278 283 289 293 297 301 306 309 314 317 318 320 322 322 321 321 320 320 320 319 318 318 317 317 317 318 320 322 322 322 320 319 320 322 324 327 328 325 324 328 333 336 337 338 340 340 339 340 341 342 343 344 345 347 349 353 358 4 9 14
203 203 204 206 206 206 205 205 207 212 217 222 227 233 236 240 242 244 247 251 255 260 265 271 276 282 286 291 295 299 303 307 311 315 318 319 322 323 322 321 322 322 321 321 320 319 318 317 317 316 316 317 318 320 322 321 320 319 319 319 323 327 326 323 325 331 335 336 337 339 339 340 341 342 342 343 345 346 347 349 352 357 3 9 16
205 205 206 209 210 211 212 213 215 219 223 226 230 234 237 240 242 245 249 254 258 264 270 275 280 285 289 292 297 301 304 308 312 315 317 320 322 322 321 321 322 322 322 321 320 319 318 317 317 316 315 315 315 316 318 320 321 320 318 317 319 324 326 323 323 328 333 335 336 338 339 339 341 343 343 343 345 346 347 348 350 355 2 8 14
207 206 207 211 215 218 221 222 223 226 228 230 233 236 238 241 244 247 252 257 263 269 275 279 282 286 289 292 297 301 303 308 312 314 317 320 321 320 320 321 322 322 322 320 318 318 317 316 316 316 314 313 313 313 314 316 319 320 320 319 318 320 322 321 320 324 330 334 334 336 338 339 341 343 344 345 346 347 347 347 346 347 353 2 9